Location: Bazinghen
(50.8246°N, 1.6616°E)
Time: 19:29:37
(UTC+00:00)

DMSP B5C-06 - Pass Details

Date: 07 June 2022
Orbit: 773 x 823 km, 98.4° (Epoch: 29 June)

Event Time Altitude Azimuth Distance (km) Brightness Sun altitude
Rises 02:48:02 0° 94° (E) 3,288 8.8 -6.9°
Reaches altitude 10° 02:52:50 10° 54° (NE) 2,380 9.2 -6.4°
Maximum altitude 02:53:32 10° 46° (NE) 2,364 9.4 -6.3°
Drops below altitude 10° 02:54:14 10° 38° (NE) 2,386 9.4 -6.2°
Sets 02:59:04 0° 359° (N) 3,338 9.1 -5.7°
